Regional Weather Roundup
Issued by NWS

Home | Current Version | Previous Version | Graphics & Text | Print | Product List | Glossary On
Versions: 1 2 3 4 5 6 7 8 9 10 11 12 13 14 15 16 17 18 19 20 21 22 23 24 25 26 27 28 29 30 31 32 33 34 35 36 37 38 39 40 41 42 43 44 45 46 47 48 49 50
000
ASUS43 KDTX 011410
RWRMI
MICHIGAN HOURLY REGIONAL WEATHER ROUNDUP
NATIONAL WEATHER SERVICE DETROIT/PONTIAC MI
1000 AM EDT WED APR 01 2015

NOTE: "FAIR" INDICATES FEW OR NO CLOUDS BELOW 12,000 FEET WITH NO
SIGNIFICANT WEATHER AND/OR OBSTRUCTION TO VISIBILITY.

MIZ047>049-052>055-059>063-066>070-074>076-081>083-011500-
SOUTHEAST LOWER MICHIGAN

CITY           SKY/WX    TMP DP  RH WIND       PRES   REMARKS
ADRIAN         SUNNY     37  35  92 SW6       30.10R FOG     WCI  32
ALMA           SUNNY     35  34  97 NE3       30.09R
ANN ARBOR      SUNNY     40  35  83 W3        30.09R HAZE
BAD AXE        SUNNY     36  19  50 SE7       30.11R WCI  30
CARO           SUNNY     36  29  74 SE5       30.10R WCI  32
DETROIT CITY   SUNNY     42  34  73 CALM      30.10R HAZE
DETROIT        MOSUNNY   40  34  79 CALM      30.11R HAZE
FLINT          SUNNY     40  34  79 CALM      30.10R
GROSSE ILE     SUNNY     39  36  87 SW5       30.09R FOG
HILLSDALE      SUNNY     44  37  74 W9        30.08R
HOWELL         SUNNY     42  33  71 CALM      30.08R

CITY           SKY/WX    TMP DP  RH WIND       PRES   REMARKS
JACKSON        SUNNY     45  34  65 W7        30.08R
LAMBERTVILLE   SUNNY     43  36  75 W6        30.11R
LANSING        SUNNY     41  29  62 CALM      30.09R
LAPEER         FOG       30  29  98 SE3       30.10R VSB 3/4
MASON          SUNNY     41  31  68 CALM      30.08R
MONROE         SUNNY     39  36  87 W7        30.09R FOG     WCI  34
MT. CLEMENS    FOG       31  31  98 CALM      30.09R VSB 1/8
PONTIAC        SUNNY     41  32  70 CALM      30.07R
PORT HOPE        N/A     33  25  72 SE10      30.10R WCI  25
PORT HURON     CLOUDY    34  32  93 CALM      30.12R FOG
TRI CITIES     SUNNY     35  29  78 E6        30.11R WCI  30
TROY           SUNNY     39  34  81 CALM      30.11R
SAGINAW HB     SUNNY     34  34 100 E3        30.10R
$$
MIZ043>046-050>051-056>058-064>065-071>073-077>080-011500-
SOUTHWEST LOWER MICHIGAN

CITY           SKY/WX    TMP DP  RH WIND       PRES   REMARKS
BATTLE CREEK   SUNNY     46  34  62 SW10      30.08R
BENTON HARBOR  SUNNY     47  37  68 S6        30.08R
BIG RAPIDS     SUNNY     34  34 100 E3        30.07R
COLDWATER      SUNNY     43  34  70 W10       30.09R
FREMONT        FAIR      37  31  77 E3        30.07R
HOLLAND        SUNNY     45  37  73 S3        30.08R
GRAND RAPIDS   SUNNY     41  30  65 CALM      30.08R
IONIA          FAIR      37  34  87 CALM      30.08R
KALAMAZOO      SUNNY     45  33  63 SW6       30.09R
LUDINGTON      SUNNY     38  32  78 SE7       30.07R WCI  33
MARSHALL       SUNNY     45  34  65 SW7       30.07R
MOUNT PLEASANT SUNNY     35  29  79 CALM      30.08S
MUSKEGON       MOSUNNY   41  32  70 E3        30.08R
SOUTH HAVEN    SUNNY     49  37  64 SW3       30.08R
$$
MIZ016>042-011500-
NORTHERN LOWER MICHIGAN

CITY           SKY/WX    TMP DP  RH WIND       PRES   REMARKS
ALPENA         CLOUDY    37  28  70 S6        30.10S WCI  32
BEAVER ISLAND  MOSUNNY   31  31  99 E5        30.07R WCI  27
BELLAIRE       SUNNY     39  28  64 S3        30.07S
CADILLAC       SUNNY     37  29  74 E6        30.04S WCI  32
CHARLEVOIX     SUNNY     39  32  77 E3        30.09S
FRANKFORT      SUNNY     40  32  73 S6        30.05F
GAYLORD        SUNNY     35  26  69 S8        30.05R WCI  29
GRAYLING       SUNNY     37  23  57 SE7       30.07S WCI  32
HARBOR SPRINGS SUNNY     36  31  82 NE5       30.07S WCI  32
HOUGHTON LAKE  SUNNY     37  22  54 SE8       30.07R WCI  31
OSCODA         SUNNY     37  27  67 SE6       30.12R WCI  32
PELLSTON       MOSUNNY   33  31  92 CALM      30.08S
ROGERS CITY    SUNNY     36  32  85 SE6       30.10S WCI  31
TRAVERSE CITY  SUNNY     38  31  76 SE6       30.06S WCI  33
$$
MIZ007>008-015-011500-
EASTERN UPPER MICHIGAN

CITY           SKY/WX    TMP DP  RH WIND       PRES   REMARKS
KINROSS        CLOUDY    36  34  93 SE5       30.08R WCI  32
MACKINAC ISLAN MOSUNNY   35  33  92 CALM      30.08R
NEWBERRY       CLOUDY    31  31 100 SE7       30.05S WCI  24
S. S. MARIE    PTSUNNY   33  25  72 SE6       30.07S WCI  28
MUNISING         N/A     61  29  29 S8        30.04S
$$
MIZ004>006-011>014-085-011500-
CENTRAL UPPER MICHIGAN

CITY           SKY/WX    TMP DP  RH WIND       PRES   REMARKS
MANISTIQUE     CLOUDY    32  32  99 E6        30.06S WCI  26
ESCANABA       CLOUDY    30  27  86 SE6       30.06R VSB 3/4 WCI  24
MENOMINEE      SUNNY     36  28  75 E6        30.05S WCI  31
SAWYER-GWINN   FOG       28  28 100 S8        30.01F VSB 3/4 WCI  20
$$
MIZ001>003-009>011-084-011500-
WESTERN UPPER MICHIGAN

CITY           SKY/WX    TMP DP  RH WIND       PRES   REMARKS
IRON MOUNTAIN  CLOUDY    32  25  75 SE7       30.01S WCI  26
HOUGHTON       CLOUDY    29  28  96 SE8       29.96F FOG     WCI  21
COPPER HARBOR    N/A     31  28  89 VRB6      29.99F WCI  25
IRONWOOD       MOSUNNY   39  34  81 E8        29.86F WCI  34
$$

ABBREVIATIONS USED IN REMARKS
   TC - TEMPERATURE IN CELSIUS
  WCI - WIND CHILL INDEX
   HX - HEAT INDEX
  VSB - VISIBILITY



USA.gov is the U.S. government's official web portal to all federal, state and local government web resources and services.